Simultaneous Nadir Overpasses (SNOs) Predictions

Prediction of SNOs between NOAA-15 and METOP-C Satellite Orbit:

Table of predicted SNOs for the next 14.0 days since TLE Epoch: 4/15/2022
Index Date (NOAA-15) Time (NOAA-15) Lat,Lon (NOAA-15) SZA (NOAA-15 ) Date (METOP-C) Time (METOP-C) Lat,Lon (METOP-C) SZA (METOP-C ) Distance(km) Time Diff (sec)
1 04/28/2022 06:32:39 81.06, 119.84 68.90 04/28/2022 06:31:28 81.06, 120.00 68.88 2.86 71
2 04/28/2022 07:23:10 -81.06, -72.70 111.11 04/28/2022 07:22:08 -81.06, -72.64 111.13 1.10 62
3 04/28/2022 08:13:41 81.06, 94.54 68.87 04/28/2022 08:12:50 81.05, 94.50 68.84 1.76 51
4 04/28/2022 09:04:12 -81.06, -97.99 111.14 04/28/2022 09:03:30 -81.05, -98.14 111.18 2.75 42
5 04/28/2022 09:54:43 81.07, 69.24 68.85 04/28/2022 09:54:11 81.06, 69.36 68.84 2.20 32
6 04/28/2022 10:45:14 -81.06,-123.28 111.16 04/28/2022 10:44:51 -81.06,-123.28 111.17 0.25 23
7 04/28/2022 11:35:44 81.05, 44.32 68.85 04/28/2022 11:35:32 81.07, 44.23 68.85 2.27 12
8 04/28/2022 12:26:16 -81.06,-148.58 111.19 04/28/2022 12:26:12 -81.07,-148.41 111.17 2.90 4
9 04/28/2022 13:16:47 81.07, 18.65 68.80 04/28/2022 13:16:54 81.06, 18.72 68.80 1.66 7
10 04/28/2022 14:07:18 -81.06,-173.87 111.21 04/28/2022 14:07:34 -81.06,-173.92 111.21 0.90 16
11 04/28/2022 14:57:48 81.06, -6.28 68.80 04/28/2022 14:58:15 81.07, -6.42 68.81 2.72 27
12 04/28/2022 15:48:20 -81.07, 160.84 111.23 04/28/2022 15:48:55 -81.07, 160.95 111.21 1.94 35
13 04/28/2022 16:38:51 81.07, -31.95 68.75 04/28/2022 16:39:37 81.06, -31.92 68.76 1.39 46
14 04/28/2022 17:29:22 -81.07, 135.54 111.26 04/28/2022 17:30:17 -81.06, 135.44 111.25 1.85 55
15 04/28/2022 18:19:52 81.06, -56.88 68.75 04/28/2022 18:20:58 81.07, -57.06 68.77 3.29 66



Historial Predications of SNOs between NOAA-15 and METOP-C
